Maple Lake, MN

5:34 AM CST on December 18, 2017 (GMT -0600)
Maple Lake Municipal

Weather History for KMGG - December, 2013

Change the Weather History Date:

Wednesday, December 18, 2013

  Actual Average (KSTC) Record (KSTC)
Temperature  
Mean Temperature 16 °F -  
Max Temperature 32 °F 23 °F 47 °F (2011)
Min Temperature 1 °F 6 °F -30 °F (1983)
Degree Days  
Heating Degree Days 48    
Moisture  
Dew Point 18 °F    
Average Humidity 83    
Maximum Humidity 96    
Minimum Humidity 66    
Precipitation  
Precipitation 0.00 in - - ()
Sea Level Pressure  
Sea Level Pressure 29.76 in    
Wind  
Wind Speed 3 mph (South)    
Max Wind Speed 10 mph    
Max Gust Speed -    
Visibility 10 miles    
Events      
Averages and records for this station are not official NWS values.
T = Trace of Precipitation, MM = Missing Value Source: NWS Daily Summary

Daily Weather History Graph

Daily Weather History Graph

Search for Another Location

Airport or City:

Trip Planner

Search our weather history database for the weather conditions in past years. The results will help you decide how hot, cold, wet, or windy it might be!

Date:

Astronomy

Dec. 18, 2013 Rise Set
Actual Time 7:50 AM CST 4:35 PM CST
Civil Twilight 7:16 AM CST 5:09 PM CST
Nautical Twilight 6:38 AM CST 5:46 PM CST
Astronomical Twilight 6:03 AM CST 6:22 PM CST
Moon 6:11 PM CST 8:26 AM CST
Length of Visible Light 9h 52m
Length of Day
8h 44m
Full, 98% of the Moon is Illuminated
Dec 18
Full
Dec 25
Last Quarter
Jan 1
New
Jan 7
First Quarter
Jan 15
Full

Hourly Weather History & Observations

Time (CST) Temp. Windchill Dew Point Humidity Pressure Visibility Wind Dir Wind Speed Gust Speed Precip Events Conditions
12:17 AM 1.9 °F - -0.6 °F 89% 30.04 in 10.0 mi Calm Calm - N/A   Clear
12:37 AM 2.8 °F - 0.3 °F 89% 30.04 in 10.0 mi Calm Calm - N/A   Clear
12:57 AM 3.2 °F - 1.0 °F 91% 30.03 in 10.0 mi Calm Calm - N/A   Clear
1:17 AM 3.7 °F - 1.4 °F 90% 30.02 in 10.0 mi Calm Calm - N/A   Clear
1:36 AM 4.6 °F - 2.3 °F 90% 30.01 in 10.0 mi Calm Calm - N/A   Clear
1:57 AM 5.9 °F - 4.1 °F 92% 30.00 in 10.0 mi Calm Calm - N/A   Scattered Clouds
2:17 AM 7.0 °F - 5.2 °F 92% 29.99 in 10.0 mi Calm Calm - N/A   Mostly Cloudy
2:36 AM 8.4 °F - 6.6 °F 92% 29.98 in 10.0 mi Calm Calm - N/A   Mostly Cloudy
2:57 AM 7.7 °F - 5.9 °F 92% 29.97 in 10.0 mi Calm Calm - N/A   Clear
3:17 AM 8.1 °F 1.4 °F 6.3 °F 92% 29.97 in 10.0 mi SSE 3.5 mph - N/A   Clear
3:36 AM 9.0 °F 2.4 °F 7.3 °F 93% 29.94 in 10.0 mi SE 3.5 mph - N/A   Clear
3:57 AM 10.4 °F 2.2 °F 9.0 °F 94% 29.93 in 10.0 mi SE 4.6 mph - N/A   Clear
4:17 AM 12.9 °F 3.8 °F 11.3 °F 93% 29.91 in 10.0 mi SE 5.8 mph - N/A   Clear
4:36 AM 13.8 °F 6.2 °F 12.4 °F 94% 29.89 in 10.0 mi ESE 4.6 mph - N/A   Clear
4:57 AM 14.4 °F 6.9 °F 13.1 °F 95% 29.87 in 10.0 mi SE 4.6 mph - N/A   Clear
5:17 AM 15.1 °F 6.4 °F 14.0 °F 95% 29.85 in 10.0 mi SE 5.8 mph - N/A   Clear
5:36 AM 15.4 °F 6.8 °F 14.4 °F 95% 29.84 in 10.0 mi SE 5.8 mph - N/A   Clear
5:56 AM 16.7 °F 7.2 °F 15.6 °F 96% 29.82 in 10.0 mi ESE 6.9 mph - N/A   Scattered Clouds
6:17 AM 17.6 °F 10.7 °F 16.5 °F 96% 29.82 in 10.0 mi ESE 4.6 mph - N/A   Mostly Cloudy
6:36 AM 18.1 °F 8.9 °F 16.7 °F 94% 29.80 in 10.0 mi ESE 6.9 mph - N/A   Overcast
6:57 AM 19.0 °F 10.0 °F 16.7 °F 91% 29.76 in 10.0 mi SE 6.9 mph - N/A   Scattered Clouds
7:17 AM 19.8 °F 9.9 °F 16.3 °F 87% 29.75 in 10.0 mi SE 8.1 mph - N/A   Clear
7:37 AM 19.8 °F 11.9 °F 15.4 °F 83% 29.75 in 10.0 mi SSE 5.8 mph - N/A   Clear
7:57 AM 19.4 °F 11.5 °F 14.5 °F 81% 29.73 in 10.0 mi SE 5.8 mph - N/A   Clear
8:17 AM 19.9 °F 11.1 °F 14.0 °F 78% 29.72 in 10.0 mi SE 6.9 mph - N/A   Clear
8:37 AM 21.6 °F 13.0 °F 14.0 °F 73% 29.71 in 10.0 mi SE 6.9 mph - N/A   Clear
8:57 AM 22.6 °F 14.3 °F 14.5 °F 71% 29.71 in 10.0 mi SSE 6.9 mph - N/A   Clear
9:17 AM 23.9 °F 15.8 °F 14.9 °F 69% 29.70 in 10.0 mi SSE 6.9 mph - N/A   Clear
9:36 AM 25.9 °F 17.4 °F 16.0 °F 66% 29.70 in 10.0 mi SSE 8.1 mph - N/A   Clear
9:57 AM 25.7 °F 16.4 °F 16.7 °F 69% 29.69 in 10.0 mi SSE 9.2 mph - N/A   Clear
10:17 AM 26.2 °F 16.4 °F 17.2 °F 69% 29.68 in 10.0 mi SSE 10.4 mph - N/A   Clear
10:37 AM 27.1 °F 20.7 °F 17.6 °F 67% 29.68 in 10.0 mi South 5.8 mph - N/A   Clear
10:56 AM 27.0 °F 19.5 °F 18.1 °F 69% 29.67 in 10.0 mi SSE 6.9 mph - N/A   Clear
11:17 AM 28.8 °F 20.9 °F 19.6 °F 69% 29.66 in 10.0 mi South 8.1 mph - N/A   Clear
11:36 AM 30.2 °F 21.9 °F 21.2 °F 69% 29.65 in 10.0 mi SSW 9.2 mph - N/A   Clear
11:56 AM 30.9 °F 24.3 °F 21.9 °F 69% 29.65 in 10.0 mi SSW 6.9 mph - N/A   Clear
12:17 PM 30.4 °F 24.5 °F 22.1 °F 71% 29.65 in 10.0 mi SSW 5.8 mph - N/A   Clear
12:37 PM 30.7 °F 24.9 °F 22.6 °F 72% 29.64 in 10.0 mi SW 5.8 mph - N/A   Clear
12:57 PM 30.9 °F 24.3 °F 23.0 °F 72% 29.63 in 10.0 mi SSW 6.9 mph - N/A   Clear
1:16 PM 30.2 °F 25.4 °F 23.0 °F 75% 29.63 in 10.0 mi SW 4.6 mph - N/A   Clear
1:37 PM 30.6 °F - 23.5 °F 75% 29.64 in 10.0 mi Calm Calm - N/A   Clear
1:57 PM 30.7 °F 26.0 °F 23.7 °F 75% 29.64 in 10.0 mi WSW 4.6 mph - N/A   Clear
2:16 PM 31.1 °F 26.4 °F 23.9 °F 75% 29.63 in 10.0 mi SW 4.6 mph - N/A   Clear
2:37 PM 31.5 °F 25.8 °F 24.1 °F 74% 29.63 in 10.0 mi SW 5.8 mph - N/A   Clear
2:57 PM 31.6 °F - 24.4 °F 75% 29.63 in 10.0 mi Calm Calm - N/A   Clear
3:17 PM 32.0 °F - 24.8 °F 75% 29.64 in 10.0 mi Calm Calm - N/A   Clear
3:37 PM 31.8 °F 28.5 °F 24.8 °F 75% 29.64 in 10.0 mi SSW 3.5 mph - N/A   Clear
3:57 PM 31.8 °F - 24.8 °F 75% 29.64 in 10.0 mi Calm Calm - N/A   Clear
4:17 PM 31.6 °F - 25.2 °F 77% 29.64 in 10.0 mi Calm Calm - N/A   Clear
4:36 PM 30.9 °F 27.5 °F 25.2 °F 79% 29.64 in 10.0 mi SSW 3.5 mph - N/A   Clear
4:57 PM 30.6 °F - 25.5 °F 82% 29.64 in 10.0 mi Calm Calm - N/A   Clear
5:17 PM 30.9 °F - 25.7 °F 81% 29.65 in 10.0 mi Calm Calm - N/A   Clear
5:37 PM 29.7 °F - 25.3 °F 84% 29.65 in 10.0 mi Calm Calm - N/A   Clear
5:56 PM 28.9 °F 23.9 °F 25.0 °F 85% 29.66 in 10.0 mi SW 4.6 mph - N/A   Clear
6:17 PM 29.3 °F - 25.3 °F 85% 29.66 in 10.0 mi Calm Calm - N/A   Clear
6:36 PM 28.2 °F - 24.6 °F 86% 29.67 in 10.0 mi Calm Calm - N/A   Clear
6:57 PM 27.9 °F 22.6 °F 24.8 °F 88% 29.67 in 10.0 mi SW 4.6 mph - N/A   Clear
7:17 PM 28.9 °F 25.2 °F 25.3 °F 86% 29.68 in 10.0 mi SW 3.5 mph - N/A   Clear
7:36 PM 27.3 °F 22.0 °F 24.4 °F 89% 29.68 in 10.0 mi WSW 4.6 mph - N/A   Clear
7:57 PM 29.3 °F 24.3 °F 25.7 °F 86% 29.69 in 10.0 mi WSW 4.6 mph - N/A   Clear
8:16 PM 28.8 °F - 25.0 °F 86% 29.69 in 10.0 mi Calm Calm - N/A   Clear
8:37 PM 27.3 °F - 24.3 °F 88% 29.70 in 10.0 mi Calm Calm - N/A   Clear
8:57 PM 25.9 °F 21.7 °F 23.7 °F 92% 29.71 in 10.0 mi West 3.5 mph - N/A   Clear
9:17 PM 27.7 °F 21.3 °F 25.2 °F 90% 29.72 in 10.0 mi West 5.8 mph - N/A   Clear
9:37 PM 28.2 °F 24.4 °F 24.8 °F 87% 29.73 in 10.0 mi West 3.5 mph - N/A   Clear
9:56 PM 27.3 °F 23.4 °F 23.7 °F 86% 29.74 in 10.0 mi WNW 3.5 mph - N/A   Clear
10:17 PM 25.2 °F 18.3 °F 22.5 °F 89% 29.75 in 10.0 mi NW 5.8 mph - N/A   Clear
10:37 PM 26.8 °F 21.4 °F 23.0 °F 86% 29.77 in 10.0 mi NW 4.6 mph - N/A   Clear
10:57 PM 26.4 °F 18.9 °F 22.6 °F 86% 29.78 in 10.0 mi NW 6.9 mph - N/A   Clear
11:17 PM 26.2 °F 17.1 °F 22.1 °F 84% 29.79 in 10.0 mi NW 9.2 mph - N/A   Clear
11:37 PM 25.7 °F 17.1 °F 21.9 °F 86% 29.81 in 10.0 mi NNW 8.1 mph - N/A   Clear
11:57 PM 25.3 °F 15.3 °F 21.2 °F 84% 29.81 in 10.0 mi NNW 10.4 mph - N/A   Clear